SCP
-0 -0 0 0 -0 0 0 0 0 0 0 0 0 0 0 0 0 0 0 -0 -0 -0 -0 -0 -0 -0 -0 -0 -0 -0 -0 -0 -0 -0 -0 -0 -0 -0 -0 -0 -0 -0 -0 -0 -0 -0 -0 -0 -0
-0 -0 0 0 -0 0 0 0 0 0 0 0 0 0 0 0 -0 0 -0 0 -0 -0 -0 -0 -0 -0 -0 -0 -0 -0 -0 -0 -0 -0 -0 -0 -0 -0 -0 -0 -0 -0 -0 -0 -0 -0 -0 -0 -0
-0 0 0 0 -0 -0 -0 0 -0 0 0 0 0 0 0 0 -0 -0 -0 0 -0 -0 -0 -0 -0 -0 -0 -0 -0 -0 -0 -0 -0 -0 -0 -0 -0 -0 -0 -0 -0 -0 -0 -0 -0 -0 -0 -0 -0
-0 -0 -0 0 -0 0 -0 -0 0 0 0 0 0 0 0 0 -0 -0 -0 -0 -0 -0 -0 -0 -0 -0 -0 -0 -0 -0 -0 -0 -0 -0 -0 -0 -0 0 0 -0 -0 -0 -0 -0 -0 -0 -0 -0 -0
-0 -0 0 -0 0 0 0 0 0 0 0 0 0 0 0 -0 0 -0 -0 -0 -0 -0 -0 -0 -0 -0 -0 -0 -0 -0 -0 -0 -0 -0 -0 -0 -0 -0 -0 -0 -0 -0 0 0 -0 -0 -0 -0 -0
-0 -0 -0 -0 -0 -0 0 0 0 0 0 0 0 0 0 -0 -0 -0 -0 -0 -0 -0 -0 -0 -0 -0 -0 -0 -0 -0 -0 -0 -0 -0 -0 -0 -0 0 0 0 0 -0 -0 -0 -0 -0 0 -0 -0
0 -0 -0 -0 -0 0 0 -0 0 0 -0 0 0 0 0 0 -0 -0 -0 -0 -0 -0 -0 -0 -0 -0 -0 -0 -0 -0 -0 -0 -0 -0 -0 -0 0 0 -0 0 -0 0 -0 0 0 -0 0 0 0
-0 0 -0 -0 0 -0 -0 -0 -0 -0 -0 -0 -0 -0 -0 -0 -0 -0 -0 -0 -0 -0 -0 -0 -0 -0 -0 -0 -0 -0 -0 -0 -0 -0 -0 0 -0 0 0 -0 -0 -0 -0 0 0 0 0 -0 0
-0 0 0 -0 0 -0 0 0 0 0 0 -0 -0 -0 -0 -0 -0 -0 -0 -0 -0 0 0 0 -0 -0 -0 0 -0 -0 -0 -0 -0 -0 -0 0 -0 -0 0 0 -0 -0 -0 -0 -0 0 0 0 0
0 0 0 -0 -0 0 0 0 0 0 0 0 -0 -0 -0 -0 -0 -0 -0 -0 -0 -0 -0 -0 -0 0 -0 -0 0 -0 -0 -0 -0 0 0 -0 0 -0 -0 0 -0 -0 -0 -0 -0 0 0 0 -0
-0 -0 -0 -0 0 0 0 0 0 0 0 0 -0 -0 -0 -0 -0 -0 -0 -0 -0 -0 -0 -0 -0 0 -0 0 -0 -0 0 -0 -0 0 0 -0 -0 -0 -0 -0 -0 -0 -0 0 -0 -0 -0 -0 -0
-0 0 0 -0 0 0 0 0 0 0 0 -0 -0 -0 -0 -0 -0 -0 -0 -0 -0 -0 -0 -0 -0 -0 -0 0 0 0 -0 0 -0 0 0 -0 -0 -0 -0 -0 0 0 0 -0 -0 -0 -0 -0 -0
-0 -0 0 -0 0 0 0 0 0 0 0 0 -0 -0 -0 -0 -0 -0 0 0 -0 -0 -0 -0 -0 -0 0 0 -0 0 -0 0 0 0 0 0 -0 -0 -0 -0 0 0 0 -0 -0 -0 0 0 0
-0 -0 -0 -0 0 0 0 0 0 0 0 0 0 -0 -0 -0 -0 -0 -0 -0 0 -0 -0 -0 -0 0 0 0 0 0 -0 0 0 0 -0 -0 -0 0 0 0 0 0 0 -0 0 0 0 0 0
-0 0 -0 0 0 0 0 0 0 0 0 0 0 -0 -0 -0 -0 -0 -0 -0 -0 0 0 0 -0 0 0 0 -0 0 -0 -0 0 0 -0 -0 -0 -0 -0 0 0 0 0 -0 -0 0 0 0 0
-0 -0 0 -0 0 0 0 -0 0 0 0 0 0 0 -0 -0 -0 -0 -0 -0 -0 0 0 0 0 -0 0 0 -0 -0 -0 -0 -0 -0 -0 -0 -0 -0 -0 -0 0 0 0 0 0 0 0 0 0
-0 0 0 -0 -0 0 0 0 0 0 0 0 0 0 -0 0 -0 -0 0 -0 -0 -0 0 0 0 -0 0 0 -0 -0 -0 -0 -0 -0 -0 -0 -0 -0 -0 -0 0 -0 -0 0 0 0 0 0 -0
0 0 0 0 0 -0 0 0 0 0 0 0 0 0 0 0 -0 0 -0 0 0 -0 0 0 0 0 0 0 0 -0 -0 -0 -0 -0 -0 0 -0 -0 0 0 -0 -0 -0 0 0 -0 -0 0 0
0 0 0 0 -0 0 0 0 0 0 0 0 0 0 0 0 0 0 0 -0 -0 0 0 0 0 0 0 0 0 0 -0 -0 -0 -0 0 0 0 0 0 0 -0 0 -0 -0 -0 -0 -0 -0 -0
0 0 0 0 -0 0 0 0 0 0 0 0 0 0 0 0 0 0 0 -0 -0 -0 0 0 0 0 0 0 0 0 0 0 0 0 0 0 0 0 0 0 -0 0 0 -0 -0 -0 -0 -0 0
0 0 0 -0 0 -0 0 0 0 0 0 0 0 -0 -0 0 0 0 0 0 0 0 0 0 0 0 0 0 0 0 0 0 0 0 -0 0 0 0 0 0 0 0 0 0 0 0 -0 0 -0
0 0 -0 0 0 -0 0 0 0 0 0 0 0 0 0 0 -0 -0 -0 0 0 0 0 0 0 0 0 0 0 0 0 0 0 0 0 0 0 0 0 0 0 0 0 -0 -0 0 0 0 -0
-0 0 0 -0 0 -0 -0 0 0 0 0 0 0 0 -0 0 0 -0 -0 -0 -0 0 0 0 0 0 0 0 0 0 0 0 0 0 0 0 0 0 0 0 0 0 0 0 0 0 0 0 0
0 0 0 0 0 -0 -0 0 0 0 0 0 0 0 0 -0 0 0 0 0 0 0 0 0 0 0 0 0 0 0 0 0 0 0 0 0 0 0 0 0 0 0 0 0 -0 0 0 0 0
0 0 -0 0 0 -0 -0 0 -0 0 0 0 0 0 0 -0 -0 -0 0 0 0 0 0 0 0 0 0 0 0 -0 0 0 0 0 0 0 0 0 0 0 0 0 0 0 0 0 0 0 0
-0 -0 -0 -0 -0 -0 -0 0 -0 0 0 0 0 0 0 0 0 0 0 0 0 0 0 0 0 0 0 0 0 0 0 0 0 0 0 0 0 0 0 0 0 0 0 0 0 0 0 0 0
-0 -0 0 -0 -0 0 -0 -0 -0 0 0 0 0 0 0 0 0 0 0 0 0 0 0 0 -0 0 0 0 0 0 0 0 0 0 0 0 0 0 0 0 0 0 0 0 0 0 0 0 0
0 0 0 0 -0 -0 -0 -0 -0 -0 -0 0 0 0 0 0 0 0 0 0 0 0 0 0 0 0 -0 -0 0 0 0 0 0 0 0 0 0 0 0 0 0 0 0 0 0 0 0 0 0
0 0 0 0 0 0 -0 0 0 -0 0 0 0 0 0 0 0 0 0 0 0 0 0 0 0 0 0 0 0 -0 0 0 0 0 0 0 0 0 0 0 0 0 0 0 0 0 0 0 0
0 0 0 0 0 0 0 0 -0 0 0 0 0 0 0 0 0 0 0 0 0 0 0 0 0 0 0 -0 0 -0 -0 -0 -0 -0 -0 0 0 0 0 0 0 0 0 0 0 0 0 0 0
Wind_Speed_500mb
12 4 4 2 7 9 6 7 4 8 2 7 26 6 7 7 6 6 25 65 65 66 61 57 53 46 41 41 46 46 45 44 41 36 32 30 29 26 25 23 25 25 23 22 19 19 18 17 19
2 8 2 1 8 7 4 7 7 4 8 15 13 8 4 5 6 19 63 56 65 65 62 58 51 45 39 39 46 49 46 44 41 36 33 32 31 27 23 19 18 18 18 19 19 17 17 17 17
3 8 4 7 5 6 7 8 8 4 18 18 6 7 5 4 7 50 56 62 67 63 60 55 49 45 41 39 41 48 47 44 40 37 34 32 30 27 23 16 17 18 19 18 17 18 22 20 20
6 1 4 8 3 2 4 11 8 8 13 9 15 10 8 9 23 43 53 63 63 59 57 54 50 46 43 41 41 42 43 43 41 37 33 29 27 24 21 19 19 19 20 19 18 18 21 16 15
6 3 7 4 6 4 2 4 8 4 4 5 8 7 16 9 27 38 51 59 55 54 53 52 48 45 43 43 42 40 40 40 38 34 29 26 24 22 21 18 21 21 19 16 17 19 21 21 20
5 6 7 3 4 6 9 13 7 3 7 8 11 13 9 4 28 45 50 50 48 48 49 46 46 44 40 40 41 39 39 38 34 31 27 24 23 24 22 21 21 20 20 20 20 20 21 23 24
5 7 4 2 6 1 5 18 10 10 13 2 21 8 8 21 29 46 52 48 47 45 45 46 44 43 42 40 42 40 39 37 34 32 28 25 23 22 21 21 20 20 19 18 20 19 19 21 22
5 5 5 5 9 5 12 16 15 21 9 21 18 10 13 40 43 45 49 48 46 44 43 43 43 44 44 42 40 39 36 35 33 30 25 22 21 21 20 22 21 18 17 17 15 16 17 17 16
8 7 3 6 6 6 14 9 15 7 10 20 20 12 11 53 53 49 50 49 47 45 44 43 43 41 40 38 36 34 32 30 28 25 23 23 21 21 23 22 20 20 17 17 15 19 16 15 16
6 6 11 5 11 10 25 19 33 13 13 12 19 12 19 60 58 54 56 56 53 50 46 45 43 40 38 37 35 32 29 26 25 19 20 22 19 17 18 16 19 21 22 21 14 14 18 18 15
4 8 8 5 5 11 27 15 28 22 6 28 36 35 50 65 57 55 54 53 52 48 46 46 43 42 39 36 33 30 27 26 23 22 24 25 21 19 19 18 17 17 22 19 17 16 17 17 16
3 16 11 9 16 10 11 9 11 32 9 15 31 35 65 69 62 59 57 54 52 51 44 45 46 44 39 35 33 31 29 25 20 20 22 26 23 19 15 17 15 13 16 21 21 20 20 19 18
3 6 12 23 16 14 10 3 6 27 21 7 37 48 64 69 65 58 55 55 49 49 49 47 47 47 40 38 35 33 29 23 19 16 17 22 16 16 18 17 17 14 17 20 23 22 24 21 21
17 27 25 12 15 13 14 5 3 12 20 26 41 56 64 67 70 67 63 57 53 47 50 48 48 48 44 40 39 32 32 24 24 20 16 17 17 14 7 13 15 16 17 15 25 21 25 27 26
18 12 9 13 14 12 18 5 8 9 24 32 40 50 59 68 69 70 64 60 58 47 48 52 50 47 48 42 41 36 31 27 25 20 21 18 14 16 12 9 10 14 17 21 17 21 20 29 30
7 9 10 10 2 8 21 22 5 17 36 33 35 45 52 63 70 67 64 64 64 52 55 42 55 53 51 45 41 39 37 34 27 22 23 18 19 15 15 15 11 16 14 12 19 18 21 24 29
13 4 9 21 6 2 6 10 9 17 28 30 30 38 56 60 63 67 68 67 63 67 55 54 59 56 51 47 39 39 36 31 30 28 23 21 24 23 16 16 19 22 13 17 16 17 17 23 29
8 9 6 9 11 5 6 3 4 15 22 23 29 43 58 57 71 70 69 69 63 65 65 61 59 57 49 44 44 41 40 36 35 34 27 22 22 22 17 15 16 12 11 16 13 14 16 19 23
3 4 8 10 12 9 12 7 5 15 15 24 28 40 56 59 65 66 63 72 68 67 66 69 67 67 57 54 52 50 47 40 38 39 32 31 29 30 26 17 18 17 13 13 16 12 14 12 15
6 7 15 14 8 2 11 7 7 5 13 16 28 36 44 47 59 71 57 66 68 69 68 67 72 72 65 58 52 50 45 41 39 37 38 37 31 32 33 26 23 20 17 20 16 14 11 15 13
9 11 9 12 2 8 11 9 11 8 10 22 21 20 32 41 52 65 49 58 55 51 62 68 73 78 71 61 59 58 50 45 46 46 44 42 41 36 35 31 27 25 24 20 16 18 19 15 16
6 12 8 11 5 2 5 6 11 8 13 16 27 28 25 33 44 71 59 38 49 47 48 56 72 75 70 61 61 60 56 50 43 38 38 39 40 38 40 36 31 29 26 27 22 24 22 19 17
16 8 5 2 6 6 13 9 13 9 11 17 25 29 30 30 39 48 53 44 35 44 47 46 55 72 68 63 62 55 59 51 40 38 39 40 45 42 39 42 40 36 30 25 25 26 24 21 23
5 4 12 9 6 7 9 5 10 9 12 9 14 26 32 34 31 34 44 46 36 31 40 47 46 62 64 67 60 59 55 57 48 42 38 40 46 50 45 46 46 40 37 31 26 31 31 26 24
10 13 7 9 10 8 8 3 17 12 14 17 14 20 16 18 17 16 23 43 39 31 33 43 45 52 48 53 29 53 54 48 44 40 39 41 44 49 50 48 49 45 42 37 31 30 32 28 28
5 14 11 7 4 9 7 5 11 10 12 27 25 25 12 17 14 9 9 28 35 26 28 26 23 30 56 58 61 54 47 46 49 45 44 43 46 43 46 49 50 48 40 35 33 28 28 28 29
3 4 8 14 6 4 7 12 16 3 11 23 14 14 11 26 28 19 4 12 26 23 20 19 17 8 16 32 37 39 35 39 54 51 44 44 44 42 42 45 51 50 42 41 38 37 34 33 30
7 12 7 7 5 4 9 10 10 5 11 8 7 14 11 28 37 27 18 9 8 17 14 16 19 16 16 24 31 35 29 33 41 46 44 44 42 41 45 46 46 47 49 41 42 39 35 35 31
6 5 12 10 6 8 2 12 9 5 12 3 9 18 29 37 30 27 22 13 3 6 6 5 10 18 25 37 37 38 34 37 44 48 47 42 42 41 44 47 48 51 50 43 40 43 39 38 32
5 6 9 9 5 2 6 12 5 15 17 9 9 31 36 27 27 19 21 16 8 6 12 10 10 13 24 34 34 31 36 40 40 46 44 39 40 39 43 46 39 41 48 47 44 42 44 40 36
Wind_Direction_500mb
67 87 14 102 53 67 14 22 297 330 75 197 154 161 182 69 141 194 151 160 162 163 164 167 170 171 169 167 169 166 162 162 164 164 165 162 157 155 147 142 133 134 134 136 139 135 133 133 134
103 1 1 303 82 74 187 266 305 351 158 136 129 113 65 85 112 143 149 158 165 165 167 168 173 178 176 172 176 176 173 174 174 175 174 168 166 165 162 157 151 152 148 140 137 133 127 127 129
39 350 273 95 91 131 174 221 225 170 108 140 137 56 48 74 141 149 151 157 164 166 171 173 179 183 181 176 173 177 178 179 178 177 176 172 175 177 177 189 189 178 169 163 159 149 147 146 139
12 357 35 71 35 242 234 197 192 145 77 92 121 66 55 283 167 152 155 158 164 164 167 171 174 177 180 179 176 172 176 179 178 180 185 187 188 198 221 217 209 197 194 180 179 178 187 201 195
9 49 63 62 288 230 211 164 34 10 76 131 127 110 110 71 151 153 156 159 165 161 165 171 175 176 177 178 178 177 177 179 180 184 195 202 208 214 216 207 211 203 207 214 215 210 207 219 226
59 43 48 123 269 335 125 141 145 249 131 91 114 100 132 103 167 156 157 160 165 164 167 170 175 179 177 178 179 183 186 187 187 190 197 207 215 220 219 214 216 219 221 231 234 231 228 219 222
114 105 222 215 145 193 226 165 183 191 149 173 150 88 138 159 167 157 161 163 166 168 171 173 178 181 182 181 179 183 184 186 190 197 202 207 213 220 219 222 231 229 233 225 225 225 221 219 219
223 98 297 225 175 223 203 156 205 186 149 150 168 167 176 169 165 165 167 168 172 174 179 180 180 184 186 186 185 187 191 195 200 206 207 214 217 225 227 233 232 228 233 223 226 228 226 225 215
204 55 274 250 124 216 191 163 182 228 135 161 188 196 188 165 168 169 171 175 180 182 185 186 188 189 190 191 192 193 198 205 209 212 215 222 225 228 229 233 231 226 228 225 244 239 227 224 223
124 120 231 220 168 186 188 186 167 171 193 180 165 193 182 171 174 172 173 180 185 187 188 190 190 192 191 195 195 196 195 205 213 217 221 233 230 230 228 232 243 238 237 234 248 231 231 225 225
176 183 207 265 201 179 202 214 173 138 234 211 182 174 176 176 179 182 181 181 183 188 191 192 193 191 195 198 198 198 200 208 216 217 220 227 223 222 225 237 243 252 250 242 246 226 223 219 212
16 262 213 243 225 183 172 196 180 195 218 252 213 193 177 182 185 190 190 189 189 194 196 197 197 196 196 199 205 204 208 210 222 211 217 215 215 214 233 239 236 259 259 246 243 231 224 222 215
83 280 304 274 242 210 189 39 258 239 252 234 194 189 188 191 193 197 198 199 199 202 204 202 203 200 198 200 203 204 205 201 195 194 203 206 218 215 234 232 242 270 282 252 245 234 226 228 218
320 296 287 288 258 226 161 152 132 248 230 178 190 192 194 197 200 197 202 204 211 209 208 206 207 204 200 201 200 202 196 185 189 203 207 215 219 225 214 237 256 274 276 256 244 239 229 223 222
285 289 315 231 225 209 172 283 200 234 189 181 191 194 200 203 206 210 208 204 206 212 211 211 208 203 202 198 202 204 201 201 199 205 207 212 226 230 242 272 268 282 276 250 242 237 239 233 231
358 46 8 314 176 224 162 253 38 197 173 170 188 195 209 212 218 216 221 222 213 216 213 214 209 201 201 202 204 208 209 214 216 218 223 227 239 244 251 256 291 298 251 264 244 246 244 237 234
5 304 334 330 301 162 151 272 338 161 171 183 184 199 219 220 225 228 225 229 230 227 221 221 211 209 207 209 210 212 212 222 221 220 220 232 232 246 266 271 276 290 273 248 250 242 244 246 239
304 344 304 237 295 17 100 6 22 148 195 208 219 213 226 226 232 232 233 233 235 235 232 227 222 219 215 212 215 217 219 225 226 222 228 232 235 240 260 273 248 276 254 225 228 233 244 250 244
299 245 264 256 266 219 88 91 64 217 240 234 246 243 233 235 236 236 236 233 235 234 232 230 228 227 219 216 216 220 223 225 227 226 230 234 227 237 242 259 247 255 242 236 227 230 240 250 245
206 287 285 290 328 103 96 65 331 215 245 272 279 266 252 243 228 231 237 231 227 230 234 231 229 232 228 222 220 223 226 230 235 236 233 237 237 236 242 246 246 248 256 254 251 242 256 261 276
219 200 234 234 5 62 115 6 320 288 0 342 3 296 271 257 237 221 235 220 221 225 230 237 236 234 230 230 225 223 224 230 235 234 235 237 240 240 240 244 238 244 255 256 267 253 263 252 259
297 214 238 270 76 231 53 258 281 310 319 323 318 328 293 269 253 233 240 231 229 239 242 240 243 240 232 233 230 232 228 226 236 242 238 236 237 241 238 243 232 240 258 254 270 271 267 265 248
227 178 206 20 92 110 355 84 267 26 279 275 279 296 298 280 281 263 251 251 249 247 249 248 244 243 240 237 231 233 241 239 241 247 245 240 235 240 240 238 237 241 250 253 258 263 265 257 259
122 96 44 55 62 37 324 91 274 193 212 286 277 274 301 319 306 275 248 240 251 251 256 250 246 245 231 218 230 234 242 241 244 246 249 248 241 240 242 238 240 243 243 244 261 259 257 253 268
75 55 355 3 7 227 336 47 244 178 214 233 280 325 297 355 350 287 243 222 241 264 247 244 250 255 243 210 243 245 239 246 250 250 253 257 249 243 240 239 239 241 243 246 249 255 246 251 262
125 146 151 198 226 266 319 283 271 189 249 282 300 293 265 343 322 348 256 230 235 239 236 243 261 266 253 230 238 259 234 237 244 246 248 258 257 257 247 247 242 242 245 240 240 255 249 257 261
130 73 162 101 8 35 290 293 303 350 285 286 356 18 229 348 355 357 260 216 227 229 220 241 278 326 148 204 225 220 228 246 248 249 250 257 256 252 248 248 242 242 242 240 243 253 256 257 266
104 148 62 22 132 281 298 288 241 315 291 301 86 74 2 350 9 37 42 37 222 240 253 262 254 203 160 182 219 237 244 257 248 245 253 260 256 253 248 247 241 241 245 242 244 248 251 256 264
37 45 53 111 112 156 253 271 222 247 226 208 31 12 4 5 23 32 29 34 31 265 271 214 223 214 220 219 235 256 259 261 266 255 251 255 259 257 245 244 242 251 242 242 246 243 251 256 257
20 106 115 112 239 69 152 272 313 252 234 144 43 14 9 32 35 20 19 19 16 316 301 294 304 248 240 230 229 232 247 260 268 243 253 253 257 255 251 239 245 240 238 243 244 248 253 257 257
Wind_Speed_850mb
12 4 4 2 7 9 6 7 4 8 2 7 26 6 7 7 6 6 25 65 65 66 61 57 53 46 41 41 46 46 45 44 41 36 32 30 29 26 25 23 25 25 23 22 19 19 18 17 19
2 8 2 1 8 7 4 7 7 4 8 15 13 8 4 5 6 19 63 56 65 65 62 58 51 45 39 39 46 49 46 44 41 36 33 32 31 27 23 19 18 18 18 19 19 17 17 17 17
3 8 4 7 5 6 7 8 8 4 18 18 6 7 5 4 7 50 56 62 67 63 60 55 49 45 41 39 41 48 47 44 40 37 34 32 30 27 23 16 17 18 19 18 17 18 22 20 20
6 1 4 8 3 2 4 11 8 8 13 9 15 10 8 9 23 43 53 63 63 59 57 54 50 46 43 41 41 42 43 43 41 37 33 29 27 24 21 19 19 19 20 19 18 18 21 16 15
6 3 7 4 6 4 2 4 8 4 4 5 8 7 16 9 27 38 51 59 55 54 53 52 48 45 43 43 42 40 40 40 38 34 29 26 24 22 21 18 21 21 19 16 17 19 21 21 20
5 6 7 3 4 6 9 13 7 3 7 8 11 13 9 4 28 45 50 50 48 48 49 46 46 44 40 40 41 39 39 38 34 31 27 24 23 24 22 21 21 20 20 20 20 20 21 23 24
5 7 4 2 6 1 5 18 10 10 13 2 21 8 8 21 29 46 52 48 47 45 45 46 44 43 42 40 42 40 39 37 34 32 28 25 23 22 21 21 20 20 19 18 20 19 19 21 22
5 5 5 5 9 5 12 16 15 21 9 21 18 10 13 40 43 45 49 48 46 44 43 43 43 44 44 42 40 39 36 35 33 30 25 22 21 21 20 22 21 18 17 17 15 16 17 17 16
8 7 3 6 6 6 14 9 15 7 10 20 20 12 11 53 53 49 50 49 47 45 44 43 43 41 40 38 36 34 32 30 28 25 23 23 21 21 23 22 20 20 17 17 15 19 16 15 16
6 6 11 5 11 10 25 19 33 13 13 12 19 12 19 60 58 54 56 56 53 50 46 45 43 40 38 37 35 32 29 26 25 19 20 22 19 17 18 16 19 21 22 21 14 14 18 18 15
4 8 8 5 5 11 27 15 28 22 6 28 36 35 50 65 57 55 54 53 52 48 46 46 43 42 39 36 33 30 27 26 23 22 24 25 21 19 19 18 17 17 22 19 17 16 17 17 16
3 16 11 9 16 10 11 9 11 32 9 15 31 35 65 69 62 59 57 54 52 51 44 45 46 44 39 35 33 31 29 25 20 20 22 26 23 19 15 17 15 13 16 21 21 20 20 19 18
3 6 12 23 16 14 10 3 6 27 21 7 37 48 64 69 65 58 55 55 49 49 49 47 47 47 40 38 35 33 29 23 19 16 17 22 16 16 18 17 17 14 17 20 23 22 24 21 21
17 27 25 12 15 13 14 5 3 12 20 26 41 56 64 67 70 67 63 57 53 47 50 48 48 48 44 40 39 32 32 24 24 20 16 17 17 14 7 13 15 16 17 15 25 21 25 27 26
18 12 9 13 14 12 18 5 8 9 24 32 40 50 59 68 69 70 64 60 58 47 48 52 50 47 48 42 41 36 31 27 25 20 21 18 14 16 12 9 10 14 17 21 17 21 20 29 30
7 9 10 10 2 8 21 22 5 17 36 33 35 45 52 63 70 67 64 64 64 52 55 42 55 53 51 45 41 39 37 34 27 22 23 18 19 15 15 15 11 16 14 12 19 18 21 24 29
13 4 9 21 6 2 6 10 9 17 28 30 30 38 56 60 63 67 68 67 63 67 55 54 59 56 51 47 39 39 36 31 30 28 23 21 24 23 16 16 19 22 13 17 16 17 17 23 29
8 9 6 9 11 5 6 3 4 15 22 23 29 43 58 57 71 70 69 69 63 65 65 61 59 57 49 44 44 41 40 36 35 34 27 22 22 22 17 15 16 12 11 16 13 14 16 19 23
3 4 8 10 12 9 12 7 5 15 15 24 28 40 56 59 65 66 63 72 68 67 66 69 67 67 57 54 52 50 47 40 38 39 32 31 29 30 26 17 18 17 13 13 16 12 14 12 15
6 7 15 14 8 2 11 7 7 5 13 16 28 36 44 47 59 71 57 66 68 69 68 67 72 72 65 58 52 50 45 41 39 37 38 37 31 32 33 26 23 20 17 20 16 14 11 15 13
9 11 9 12 2 8 11 9 11 8 10 22 21 20 32 41 52 65 49 58 55 51 62 68 73 78 71 61 59 58 50 45 46 46 44 42 41 36 35 31 27 25 24 20 16 18 19 15 16
6 12 8 11 5 2 5 6 11 8 13 16 27 28 25 33 44 71 59 38 49 47 48 56 72 75 70 61 61 60 56 50 43 38 38 39 40 38 40 36 31 29 26 27 22 24 22 19 17
16 8 5 2 6 6 13 9 13 9 11 17 25 29 30 30 39 48 53 44 35 44 47 46 55 72 68 63 62 55 59 51 40 38 39 40 45 42 39 42 40 36 30 25 25 26 24 21 23
5 4 12 9 6 7 9 5 10 9 12 9 14 26 32 34 31 34 44 46 36 31 40 47 46 62 64 67 60 59 55 57 48 42 38 40 46 50 45 46 46 40 37 31 26 31 31 26 24
10 13 7 9 10 8 8 3 17 12 14 17 14 20 16 18 17 16 23 43 39 31 33 43 45 52 48 53 29 53 54 48 44 40 39 41 44 49 50 48 49 45 42 37 31 30 32 28 28
5 14 11 7 4 9 7 5 11 10 12 27 25 25 12 17 14 9 9 28 35 26 28 26 23 30 56 58 61 54 47 46 49 45 44 43 46 43 46 49 50 48 40 35 33 28 28 28 29
3 4 8 14 6 4 7 12 16 3 11 23 14 14 11 26 28 19 4 12 26 23 20 19 17 8 16 32 37 39 35 39 54 51 44 44 44 42 42 45 51 50 42 41 38 37 34 33 30
7 12 7 7 5 4 9 10 10 5 11 8 7 14 11 28 37 27 18 9 8 17 14 16 19 16 16 24 31 35 29 33 41 46 44 44 42 41 45 46 46 47 49 41 42 39 35 35 31
6 5 12 10 6 8 2 12 9 5 12 3 9 18 29 37 30 27 22 13 3 6 6 5 10 18 25 37 37 38 34 37 44 48 47 42 42 41 44 47 48 51 50 43 40 43 39 38 32
5 6 9 9 5 2 6 12 5 15 17 9 9 31 36 27 27 19 21 16 8 6 12 10 10 13 24 34 34 31 36 40 40 46 44 39 40 39 43 46 39 41 48 47 44 42 44 40 36
Wind_Direction_850mb
67 87 14 102 53 67 14 22 297 330 75 197 154 161 182 69 141 194 151 160 162 163 164 167 170 171 169 167 169 166 162 162 164 164 165 162 157 155 147 142 133 134 134 136 139 135 133 133 134
103 1 1 303 82 74 187 266 305 351 158 136 129 113 65 85 112 143 149 158 165 165 167 168 173 178 176 172 176 176 173 174 174 175 174 168 166 165 162 157 151 152 148 140 137 133 127 127 129
39 350 273 95 91 131 174 221 225 170 108 140 137 56 48 74 141 149 151 157 164 166 171 173 179 183 181 176 173 177 178 179 178 177 176 172 175 177 177 189 189 178 169 163 159 149 147 146 139
12 357 35 71 35 242 234 197 192 145 77 92 121 66 55 283 167 152 155 158 164 164 167 171 174 177 180 179 176 172 176 179 178 180 185 187 188 198 221 217 209 197 194 180 179 178 187 201 195
9 49 63 62 288 230 211 164 34 10 76 131 127 110 110 71 151 153 156 159 165 161 165 171 175 176 177 178 178 177 177 179 180 184 195 202 208 214 216 207 211 203 207 214 215 210 207 219 226
59 43 48 123 269 335 125 141 145 249 131 91 114 100 132 103 167 156 157 160 165 164 167 170 175 179 177 178 179 183 186 187 187 190 197 207 215 220 219 214 216 219 221 231 234 231 228 219 222
114 105 222 215 145 193 226 165 183 191 149 173 150 88 138 159 167 157 161 163 166 168 171 173 178 181 182 181 179 183 184 186 190 197 202 207 213 220 219 222 231 229 233 225 225 225 221 219 219
223 98 297 225 175 223 203 156 205 186 149 150 168 167 176 169 165 165 167 168 172 174 179 180 180 184 186 186 185 187 191 195 200 206 207 214 217 225 227 233 232 228 233 223 226 228 226 225 215
204 55 274 250 124 216 191 163 182 228 135 161 188 196 188 165 168 169 171 175 180 182 185 186 188 189 190 191 192 193 198 205 209 212 215 222 225 228 229 233 231 226 228 225 244 239 227 224 223
124 120 231 220 168 186 188 186 167 171 193 180 165 193 182 171 174 172 173 180 185 187 188 190 190 192 191 195 195 196 195 205 213 217 221 233 230 230 228 232 243 238 237 234 248 231 231 225 225
176 183 207 265 201 179 202 214 173 138 234 211 182 174 176 176 179 182 181 181 183 188 191 192 193 191 195 198 198 198 200 208 216 217 220 227 223 222 225 237 243 252 250 242 246 226 223 219 212
16 262 213 243 225 183 172 196 180 195 218 252 213 193 177 182 185 190 190 189 189 194 196 197 197 196 196 199 205 204 208 210 222 211 217 215 215 214 233 239 236 259 259 246 243 231 224 222 215
83 280 304 274 242 210 189 39 258 239 252 234 194 189 188 191 193 197 198 199 199 202 204 202 203 200 198 200 203 204 205 201 195 194 203 206 218 215 234 232 242 270 282 252 245 234 226 228 218
320 296 287 288 258 226 161 152 132 248 230 178 190 192 194 197 200 197 202 204 211 209 208 206 207 204 200 201 200 202 196 185 189 203 207 215 219 225 214 237 256 274 276 256 244 239 229 223 222
285 289 315 231 225 209 172 283 200 234 189 181 191 194 200 203 206 210 208 204 206 212 211 211 208 203 202 198 202 204 201 201 199 205 207 212 226 230 242 272 268 282 276 250 242 237 239 233 231
358 46 8 314 176 224 162 253 38 197 173 170 188 195 209 212 218 216 221 222 213 216 213 214 209 201 201 202 204 208 209 214 216 218 223 227 239 244 251 256 291 298 251 264 244 246 244 237 234
5 304 334 330 301 162 151 272 338 161 171 183 184 199 219 220 225 228 225 229 230 227 221 221 211 209 207 209 210 212 212 222 221 220 220 232 232 246 266 271 276 290 273 248 250 242 244 246 239
304 344 304 237 295 17 100 6 22 148 195 208 219 213 226 226 232 232 233 233 235 235 232 227 222 219 215 212 215 217 219 225 226 222 228 232 235 240 260 273 248 276 254 225 228 233 244 250 244
299 245 264 256 266 219 88 91 64 217 240 234 246 243 233 235 236 236 236 233 235 234 232 230 228 227 219 216 216 220 223 225 227 226 230 234 227 237 242 259 247 255 242 236 227 230 240 250 245
206 287 285 290 328 103 96 65 331 215 245 272 279 266 252 243 228 231 237 231 227 230 234 231 229 232 228 222 220 223 226 230 235 236 233 237 237 236 242 246 246 248 256 254 251 242 256 261 276
219 200 234 234 5 62 115 6 320 288 0 342 3 296 271 257 237 221 235 220 221 225 230 237 236 234 230 230 225 223 224 230 235 234 235 237 240 240 240 244 238 244 255 256 267 253 263 252 259
297 214 238 270 76 231 53 258 281 310 319 323 318 328 293 269 253 233 240 231 229 239 242 240 243 240 232 233 230 232 228 226 236 242 238 236 237 241 238 243 232 240 258 254 270 271 267 265 248
227 178 206 20 92 110 355 84 267 26 279 275 279 296 298 280 281 263 251 251 249 247 249 248 244 243 240 237 231 233 241 239 241 247 245 240 235 240 240 238 237 241 250 253 258 263 265 257 259
122 96 44 55 62 37 324 91 274 193 212 286 277 274 301 319 306 275 248 240 251 251 256 250 246 245 231 218 230 234 242 241 244 246 249 248 241 240 242 238 240 243 243 244 261 259 257 253 268
75 55 355 3 7 227 336 47 244 178 214 233 280 325 297 355 350 287 243 222 241 264 247 244 250 255 243 210 243 245 239 246 250 250 253 257 249 243 240 239 239 241 243 246 249 255 246 251 262
125 146 151 198 226 266 319 283 271 189 249 282 300 293 265 343 322 348 256 230 235 239 236 243 261 266 253 230 238 259 234 237 244 246 248 258 257 257 247 247 242 242 245 240 240 255 249 257 261
130 73 162 101 8 35 290 293 303 350 285 286 356 18 229 348 355 357 260 216 227 229 220 241 278 326 148 204 225 220 228 246 248 249 250 257 256 252 248 248 242 242 242 240 243 253 256 257 266
104 148 62 22 132 281 298 288 241 315 291 301 86 74 2 350 9 37 42 37 222 240 253 262 254 203 160 182 219 237 244 257 248 245 253 260 256 253 248 247 241 241 245 242 244 248 251 256 264
37 45 53 111 112 156 253 271 222 247 226 208 31 12 4 5 23 32 29 34 31 265 271 214 223 214 220 219 235 256 259 261 266 255 251 255 259 257 245 244 242 251 242 242 246 243 251 256 257
20 106 115 112 239 69 152 272 313 252 234 144 43 14 9 32 35 20 19 19 16 316 301 294 304 248 240 230 229 232 247 260 268 243 253 253 257 255 251 239 245 240 238 243 244 248 253 257 257